Location: Eastview
(35.0756°N, 88.5453°W)
Time: 00:29:48
(UTC+00:00)

Cosmos 2322 Rocket - Pass Details

Date: 22 November 2019
Orbit: 832 x 851 km, 71.0° (Epoch: 08 December)

Event Time Altitude Azimuth Distance (km) Brightness Sun altitude
Rises 23:37:54 0° 182° (S) 3,360 5.6 -11.0°
Reaches altitude 10° 23:40:25 10° 176° (S) 2,430 4.8 -11.5°
Maximum altitude 23:45:40 44° 105° (ESE) 1,142 2.5 -12.5°
Enters shadow 23:50:44 11° 36° (NE) 2,375 4.1 -13.5°
